sat.trackr.live / text

‹ back to catalog

STARLINK-4552

NORAD 53420 · 2022-097AJ

PAYLOAD ACTIVE UNKNOWN

§ Identity

Operator
Country
US
Launch date
2022-08-10
Launch site
AFETR
Launch vehicle
Mass (kg)
RCS (m²)

Purposes: comms

External: N2YO · Heavens-Above · Gunter

§ Orbital elements

Epoch: 2026-05-25T02:43:57.928224Z

Period
95.44 min
Inclination
53.2132°
Eccentricity
0.0001110
Mean motion
15.08856306 rev/d
Perigee alt
538.9 km
Apogee alt
540.5 km
Semi-major
6,917.8 km
B*
3.6954e-5
RAAN
131.0374°
Arg perigee
64.5089°
Mean anomaly
295.6018°
Rev number
21,016

§ Raw data

STARLINK-45521 53420U 22097AJ  26145.11386491  .00000301  00000+0  36954-4 0  99992 53420  53.2132 131.0374 0001110  64.5089 295.6018 15.08856306210169

JSON: /api/v1/satellites/53420 · /tle

For live sub-satellite position, see the globe view (requires WebGL).

§ Visibility from observer

Set your observer location to see the next 7 days of passes ≥ 10°. The values pass through the URL so the page stays shareable.

No JS? Fill the form by hand. The geolocation button needs JavaScript.